KUIPER-00101

Satellite information

Favourite Embed

Satellite Type and Status

PAYLOADIN ORBIT

Key statistics

Satellite KUIPER-00101 at a glance.

Uptime

20

Days in orbit

Revolutions

≈ 15.3

Per day

Orbit

LEO

Low Earth Orbit

Inclination

51.9

Latest

Satellite identification and parameters

Extended collection of information and parameters for KUIPER-00101.

Object identification

Identified? True

Debris? False

Object name: KUIPER-00101

International designator: 2025-228A

Object number (NORAD): 65947

Object ID (CCSDS): 65947

Country: UNITED STATES OF AMERICA (US)

Current information (Y/N): Y

Orbital parameters

Period: 93.824 minutes

Inclination: 51.8803 deg

SMA: 6839.664 km

Apoapsis: 465.829 km

Periapsis: 457.229 km

RAAN: 214.5048 deg

Eccentricy: 0.0006287

Argument of periapsis: 201.6219 deg

Mean anomaly: 158.4502 deg

Mean motion: 15.34795821 rev/day

Mean motion (dot): 0.00054697 rev/day2

B* drag term: 0.0015957 1/REarth

Two-line elements (TLE)

Creation date: Nov. 2, 2025, 3:46 p.m.

Reference frame: TEME

Reference center: EARTH

Epoch: Nov. 2, 2025, 11:39 a.m. UTC

TLE line 0: 0 KUIPER-00101

TLE line 1: 1 65947U 25228A 25306.48547432 .00054697 00000-0 15957-2 0 9993

TLE line 2: 2 65947 51.8803 214.5048 0006287 201.6219 158.4502 15.34795821 4235

Live tracking on map

Real-time ground track for satellite KUIPER-00101.

In-orbit conjunctions

There are no conjunctions computed for KUIPER-00101, at the moment. Check back to stay up to date, as we update our databases every day.

Go to all conjunctions

Associated space launch

Third of a three launches contract for Amazon's Kuiper low Earth orbit satellite internet constellation, with 24 satellites on board.

KUIPER-00101 was lifted into orbit during the mission ‘Falcon 9 Block 5 | Project Kuiper (KF-03)’, on board a Falcon 9 space rocket.

The launch took place on Oct. 14, 2025, 1:58 a.m. from Space Launch Complex 40.

For more information about the launch, click the button.

Launch to space Falcon 9 Block 5 | Project Kuiper (KF-03)
Falcon 9 Block 5 | Project Kuiper (KF-03)

Agency: Kuiper Systems LLC

Status: Launch Successful

Launch date: Oct. 14, 2025, 1:58 a.m. UTC

Rocket: Falcon 9

Launch pad: Space Launch Complex 40

Location: Cape Canaveral SFS, FL, USA

...

Latest news about this satellite

News about space launch
Launch Roundup: Falcon 9 to launch six missions in one week

Following the successful flight of Starship Flight 11 on Monday, SpaceX is set to continue… The post Launch Roundup: Falcon 9 to launch six missions in one week appeared first on NASASpaceFlight.com.

News about space launch
Live coverage: SpaceX poised to launch 24 Amazon Kuiper satellites following days of weather delays

The launch comes following several stormy days across Florida’s Space Coast. Liftoff of SpaceX’s Falcon 9 rocket from pad 40 at Cape Canaveral Space Force is scheduled for 8:08 p.m. EDT (0008 UTC).

News about space launch
Live coverage: SpaceX to launch 24 Project Kuiper satellites for Amazon from Cape Canaveral

This is the third and final launch that Amazon booked onboard a SpaceX Falcon 9 rocket. Liftoff from pad 40 at Cape Canaveral Space Force Station is scheduled for 9:34 p.m. EDT (0134 UTC).


Newsletter sign-up

Weekly statistics, charts and insights to help you stay on top of the space industry.